Vertical_Velocity
1 7 -5 -8 -6 -6 1 4 1 -2 -5 15 -3 -2 -7 -5 3 1 -3 -3 -4 -5 -8 -1 -2 0 5 5 9 -1 2 -5 3 -3 -7 -4 -21 -5 -0 -5 -1 3 4 3
9 -4 -9 -0 3 4 4 3 -8 -9 -2 11 -2 -18 -5 -0 -6 -1 -1 -3 -5 1 -3 2 -1 2 5 5 -0 6 -3 9 -2 5 -2 -0 2 6 21 19 7 11 6 4
-3 -30 3 4 2 9 -1 1 -3 -2 -3 1 8 -17 -4 -9 3 1 -2 -6 2 -3 -0 6 7 -0 4 4 2 1 1 2 2 -3 14 11 18 13 3 -7 -8 -15 -6 -1
-8 -13 3 4 0 2 8 -6 1 2 9 -2 0 -26 -5 -3 -2 1 -0 -2 7 4 2 2 5 2 0 -2 10 8 10 5 5 13 7 -12 -9 -9 -26 -10 11 -0 1 1
-62 2 4 9 -29 3 -32 2 -0 0 2 13 -1 11 -1 -1 -1 -0 -1 2 1 2 -0 1 2 0 1 3 2 2 9 9 5 2 -1 2 3 -1 16 5 2 2 1 1
-14 -6 8 -17 -7 -0 -8 12 4 4 4 13 -19 7 -29 -4 -9 1 1 2 3 -0 -1 -0 1 2 1 -4 0 6 7 1 7 6 4 2 -1 4 7 0 -6 -5 1 3
4 -10 -6 13 11 2 14 15 2 11 12 -15 -2 11 -31 -1 1 -1 0 2 3 2 -0 -1 -5 -6 1 6 -1 -4 2 5 4 0 1 3 -3 1 -2 -2 -1 3 2 -6
0 12 8 -9 -11 -14 -7 0 -0 -4 -2 -10 3 -1 -20 2 2 1 -0 -2 -0 1 -4 -2 -1 -1 -1 -5 -1 2 -2 -0 5 10 -1 -2 3 -2 -1 8 1 -5 -8 0
-1 4 -2 -4 1 14 -27 10 -30 13 -0 3 -6 -0 -4 -0 1 -0 -0 -0 -0 2 -0 -1 -0 -2 -3 -1 1 -3 -1 -2 3 1 14 3 8 5 -2 6 9 7 11 -0
2 -1 1 -4 -1 1 5 -3 10 1 4 1 1 -0 -2 1 1 1 -1 0 -3 -5 -3 -0 0 -1 2 -0 -5 4 4 1 -1 5 6 8 3 4 2 6 4 4 1 2
1 -3 0 -3 -1 2 -1 -1 -2 -0 -1 1 -0 -3 -2 -1 -0 0 1 0 0 -0 -4 -5 -5 -2 0 1 -1 -4 -4 -7 -3 -0 9 6 2 5 6 2 -1 -1 8 1
-4 -1 0 -2 -3 1 -0 -0 -1 2 -1 0 -1 -7 -0 -0 0 0 0 1 0 2 -2 -1 -5 -2 -2 5 -4 -4 -6 -1 -2 -7 7 3 3 6 3 4 1 -5 0 -5
3 -2 1 5 3 0 -0 0 -1 -1 0 -2 -3 -7 -0 0 -1 -1 0 2 -0 -6 -9 -6 -3 -0 -2 -6 4 -8 -7 -7 -5 -6 -4 6 4 11 3 -3 5 7 5 5
1 0 2 3 3 1 -0 0 0 -3 -0 -3 -3 -2 -1 -1 -0 -1 -1 -0 -3 -2 -4 -6 -8 -4 2 -2 -1 9 -2 -2 4 -14 -5 4 -1 3 3 2 7 7 3 -2
-2 2 0 -1 -1 1 0 1 -0 1 -4 -0 -3 -1 -1 -0 0 0 0 -2 -3 -5 -7 -1 -3 -6 -7 1 -2 -7 0 -5 -3 -2 -5 2 -3 1 3 6 -2 4 3 8
0 -3 0 -1 -0 1 1 -1 0 -0 -1 1 1 -8 0 -1 0 -1 -0 -1 -3 -4 -1 -3 -1 1 -1 -2 -0 -0 3 1 -4 3 -10 6 5 4 -1 5 7 23 8 4
1 -1 -1 -3 -0 0 -2 -7 -2 -1 -0 -3 0 -13 0 -1 -1 -0 -2 1 -1 -2 -2 -2 1 -2 -1 -0 1 -0 1 3 -0 4 -11 -5 -1 5 7 -1 10 0 16 22
0 2 1 -1 -1 -2 -14 -0 -1 -0 -1 0 0 -1 -1 -2 -4 -0 -2 0 -4 -0 -3 -6 -3 -2 1 -3 -6 0 -0 5 2 -1 4 -2 2 3 -10 4 3 9 -2 -6
1 1 -2 -3 -0 -6 -2 -2 -1 -1 -6 -1 -1 -1 -1 0 -2 -8 -1 2 -3 -3 -2 -5 -4 1 -4 -4 2 -0 2 2 10 2 3 1 -1 -1 -11 0 9 0 3 -1
3 0 -4 -1 0 -1 -0 0 0 -1 -7 -1 -1 -1 -0 -1 -1 -11 -4 -1 -7 -1 -1 -7 -7 -8 -1 -7 -1 8 -1 9 -2 4 3 -1 7 -6 -5 0 1 4 16 14
2 1 -1 0 -1 -8 -3 -1 -1 -11 -20 -1 -1 -2 0 -2 -11 -14 3 -3 3 -3 -7 -1 -3 -3 -6 -0 1 17 13 -1 -7 -11 5 4 -0 -4 -4 -2 -1 7 3 2
-4 -3 -1 1 1 -11 -2 -2 -7 -15 -1 -1 0 -4 -1 -1 -0 -4 -4 -4 -2 -4 -2 3 -4 -4 -9 5 3 16 -3 4 9 -5 -4 2 -3 -4 -1 -3 -9 -2 -8 -9
-5 -9 -8 -10 -14 -4 -4 -1 1 3 2 -2 2 0 5 4 -2 4 -8 3 -0 -1 -4 1 3 -2 0 -1 1 15 -3 -15 1 1 2 4 2 6 -6 5 1 -2 2 -7
-0 -0 0 -1 -2 -1 -1 -2 2 1 1 -1 1 1 4 0 3 -7 -2 -1 -3 -1 -9 -8 -3 2 0 -4 3 9 4 -3 9 -1 -2 0 4 1 -1 1 3 3 5 5
-4 -0 -1 -3 -2 -3 1 3 5 -5 0 -1 1 3 -3 3 -7 7 -4 -0 -2 -4 -7 5 -2 4 11 4 6 4 11 -16 5 4 -0 -2 4 1 -4 -2 4 2 1 8
-2 -3 -3 -6 1 1 -2 -2 -4 -2 -5 -6 -0 -13 -4 7 -3 6 -0 -1 -1 -5 1 0 5 16 8 8 7 14 10 11 -3 3 5 4 1 -0 -5 -1 -6 -4 0 -4
Height
1436 1433 1420 1425 1426 1424 1426 1427 1426 1430 1425 1423 1408 1382 1389 1390 1388 1388 1387 1385 1383 1381 1380 1385 1389 1392 1393 1395 1396 1399 1403 1408 1416 1421 1424 1429 1433 1437 1442 1447 1453 1458 1463 1470
1427 1408 1417 1416 1416 1421 1422 1418 1414 1417 1423 1423 1410 1370 1379 1382 1375 1376 1376 1375 1372 1373 1372 1375 1380 1383 1385 1385 1385 1388 1391 1397 1402 1410 1413 1417 1422 1426 1432 1440 1445 1450 1455 1461
1405 1389 1410 1413 1415 1415 1408 1407 1409 1412 1414 1412 1416 1379 1356 1364 1361 1361 1364 1364 1364 1366 1368 1371 1374 1376 1377 1378 1379 1380 1382 1386 1391 1397 1408 1415 1422 1427 1432 1434 1436 1439 1446 1452
1392 1383 1393 1399 1394 1405 1400 1395 1397 1402 1413 1411 1407 1381 1348 1354 1352 1354 1355 1357 1359 1362 1364 1365 1366 1369 1371 1372 1376 1377 1378 1380 1384 1390 1396 1401 1404 1407 1410 1412 1417 1424 1432 1439
1360 1373 1382 1384 1366 1391 1377 1390 1394 1391 1398 1403 1398 1400 1359 1350 1354 1351 1347 1356 1358 1361 1361 1360 1361 1363 1365 1367 1369 1371 1373 1375 1378 1381 1386 1389 1393 1398 1403 1409 1414 1418 1421 1427
1365 1369 1372 1369 1372 1375 1378 1384 1386 1383 1383 1385 1364 1390 1321 1352 1347 1345 1354 1354 1356 1357 1358 1358 1358 1359 1360 1361 1363 1364 1365 1366 1370 1374 1376 1378 1381 1389 1394 1398 1401 1404 1407 1413
1362 1360 1361 1369 1371 1371 1374 1381 1381 1378 1368 1350 1359 1375 1346 1332 1340 1346 1354 1358 1358 1355 1353 1355 1355 1354 1354 1356 1356 1356 1358 1359 1359 1363 1367 1369 1373 1379 1381 1386 1391 1396 1399 1399
1348 1348 1342 1347 1352 1353 1360 1365 1364 1356 1351 1346 1347 1354 1336 1352 1351 1354 1352 1354 1359 1356 1355 1355 1354 1353 1353 1352 1352 1351 1350 1351 1353 1353 1354 1359 1364 1368 1371 1375 1378 1383 1385 1387
1359 1337 1352 1354 1353 1351 1345 1349 1344 1353 1349 1348 1335 1344 1344 1352 1353 1354 1356 1350 1353 1356 1354 1352 1351 1351 1349 1348 1346 1345 1343 1343 1343 1344 1346 1348 1354 1359 1361 1366 1373 1375 1379 1382
1369 1362 1365 1366 1357 1355 1352 1350 1347 1344 1334 1328 1332 1333 1333 1354 1356 1353 1354 1352 1351 1353 1352 1349 1348 1347 1346 1345 1344 1340 1337 1336 1334 1337 1339 1342 1345 1349 1353 1360 1362 1365 1368 1373
1371 1363 1362 1366 1365 1360 1357 1356 1367 1364 1361 1348 1349 1343 1341 1350 1357 1354 1353 1352 1352 1353 1353 1352 1350 1346 1343 1340 1340 1337 1332 1330 1329 1330 1333 1336 1338 1341 1345 1348 1352 1355 1357 1361
1367 1365 1362 1360 1364 1367 1363 1363 1372 1370 1364 1363 1375 1361 1346 1345 1351 1350 1351 1351 1351 1354 1352 1350 1347 1344 1339 1337 1334 1332 1330 1328 1327 1327 1329 1328 1331 1334 1336 1339 1339 1343 1348 1353
1367 1367 1366 1360 1362 1364 1357 1365 1366 1369 1373 1365 1367 1366 1352 1346 1350 1353 1353 1350 1347 1348 1348 1345 1344 1340 1335 1333 1332 1329 1328 1327 1324 1324 1325 1324 1324 1326 1326 1329 1331 1334 1337 1342
1371 1367 1366 1360 1361 1362 1364 1362 1365 1372 1382 1371 1359 1356 1355 1351 1349 1351 1348 1347 1345 1345 1347 1344 1342 1338 1334 1332 1331 1326 1324 1324 1321 1317 1322 1321 1320 1322 1321 1322 1325 1327 1331 1337
1368 1367 1365 1362 1362 1366 1364 1365 1361 1365 1362 1369 1357 1354 1347 1349 1355 1353 1352 1346 1342 1342 1342 1339 1339 1336 1333 1330 1325 1323 1321 1319 1316 1314 1316 1316 1314 1317 1317 1317 1320 1323 1326 1331
1368 1376 1365 1364 1361 1362 1363 1361 1363 1362 1359 1349 1351 1350 1349 1353 1353 1350 1350 1345 1341 1341 1340 1337 1334 1332 1331 1327 1322 1319 1317 1314 1311 1308 1310 1313 1310 1312 1312 1312 1315 1316 1319 1322
1373 1373 1377 1373 1361 1362 1373 1355 1351 1348 1343 1346 1352 1345 1351 1350 1350 1346 1345 1343 1341 1340 1338 1334 1330 1326 1323 1320 1318 1315 1313 1311 1307 1308 1309 1311 1311 1311 1307 1310 1311 1314 1316 1319
1369 1369 1370 1371 1365 1389 1349 1348 1346 1345 1343 1345 1347 1347 1349 1350 1346 1344 1345 1339 1338 1338 1336 1331 1325 1319 1316 1314 1312 1310 1309 1308 1305 1307 1305 1305 1306 1305 1303 1308 1310 1313 1316 1318
1363 1368 1385 1386 1366 1354 1347 1347 1348 1345 1342 1342 1343 1344 1344 1344 1343 1336 1338 1339 1337 1335 1331 1326 1320 1312 1309 1307 1307 1306 1307 1303 1301 1303 1301 1298 1300 1302 1306 1310 1310 1313 1314 1320
1359 1364 1374 1388 1377 1374 1348 1347 1347 1346 1349 1341 1342 1342 1342 1344 1351 1338 1333 1334 1333 1329 1325 1319 1313 1306 1302 1301 1302 1302 1302 1297 1299 1301 1300 1299 1299 1302 1310 1314 1314 1315 1319 1320
1357 1361 1364 1372 1371 1363 1349 1347 1346 1360 1354 1339 1339 1339 1340 1343 1338 1329 1327 1326 1325 1320 1314 1311 1305 1298 1293 1295 1298 1296 1296 1295 1298 1300 1302 1299 1303 1307 1312 1314 1319 1319 1320 1324
1360 1369 1370 1364 1370 1373 1344 1348 1351 1345 1338 1338 1337 1336 1336 1333 1330 1328 1320 1317 1315 1310 1302 1297 1290 1284 1280 1282 1287 1288 1291 1294 1294 1297 1303 1302 1306 1310 1314 1316 1321 1322 1326 1330
1362 1354 1363 1361 1362 1344 1343 1341 1340 1340 1340 1339 1337 1334 1332 1327 1323 1320 1315 1310 1305 1300 1291 1285 1278 1269 1267 1269 1274 1279 1283 1289 1291 1295 1301 1303 1306 1308 1313 1318 1320 1325 1327 1333
1347 1345 1350 1348 1339 1340 1341 1340 1340 1340 1339 1337 1334 1329 1327 1321 1317 1312 1308 1303 1298 1291 1284 1274 1264 1257 1255 1258 1265 1272 1277 1282 1287 1294 1300 1305 1306 1308 1312 1319 1323 1327 1331 1332
1347 1346 1344 1344 1340 1339 1338 1339 1338 1334 1333 1330 1327 1324 1320 1318 1312 1309 1303 1298 1292 1285 1276 1266 1257 1252 1251 1254 1260 1267 1272 1280 1286 1293 1298 1305 1307 1309 1313 1322 1326 1330 1330 1333
1343 1343 1348 1349 1342 1343 1340 1339 1339 1335 1332 1327 1322 1315 1313 1311 1306 1303 1298 1293 1288 1279 1268 1263 1256 1251 1252 1255 1260 1264 1271 1276 1284 1290 1297 1302 1307 1310 1318 1323 1326 1331 1333 1333